Find Starlink 4106

NORAD ID: 53145 Int'l Des: 2022-083 Owner: SPXS Country: US Constellation: starlink operational
LEOCIRCULAR

Live Position

Loading 3D Globe...

About Starlink 4106

Description loading...

Upcoming Passes

Passes for default location (London). Set your location on the main map for personalized predictions.

Altitude History

Loading altitude history...

Two-Line Element Set

1 53145U 22083P 26121.75872183 -.00000007 00000-0 17634-4 0 9999
2 53145 53.2190 295.8843 0001398 95.3315 264.7837 15.08839022209237
Epoch: May 1, 2026 • Age: 23 hours

Current Status

Altitude 541.5 km
Velocity 7.59 km/s
Sub-Earth Point -5.59°S, 4.26°W
Launch Date Jul 17, 2022
Age 3.7 years
Type internet

Technical Details

Classification Payload
Mass 297.00 kg
Dry Mass 275.00 kg
Total Mass 297.00 kg
Length 0.20 m
Diameter 2.80 m
Span 9.00 m
Shape Box + pan
Manufacturer SPXS
Bus Type Starlink
Phase Status In Orbit
Owner/State SPXS/US

Most Searched